Wind_Speed
23 24 25 26 27 28 29 29 30 30 30 31 31 32 32 33 33 32 32 32 32 32 32 33 33 34 34 32 32 32 31 30 30 29 28 28 26 26 25 25 25 25 25
25 25 24 25 25 25 26 27 28 29 30 29 30 31 31 31 31 32 32 32 32 31 32 32 31 33 33 33 33 32 32 31 31 31 30 29 28 28 28 27 27 26 27
25 25 25 25 25 25 25 26 27 27 28 28 28 29 30 31 29 31 32 31 32 31 31 31 30 31 32 33 35 35 35 34 33 32 31 30 30 30 30 29 29 29 29
24 24 24 24 24 24 24 24 24 25 26 26 26 26 27 28 30 29 29 28 27 27 29 30 31 31 30 31 33 34 34 34 33 33 33 32 31 30 31 30 30 31 31
22 23 23 23 22 22 21 21 21 22 23 24 25 25 26 26 27 28 28 27 26 26 28 29 29 30 30 30 30 32 32 33 33 33 33 32 32 32 32 32 32 32 32
21 21 21 21 21 20 20 20 20 21 22 22 22 23 24 25 26 26 27 27 26 26 27 28 28 28 28 29 29 30 31 32 33 32 32 33 33 32 32 31 31 32 32
19 19 19 19 19 18 19 20 20 20 20 20 20 20 21 22 24 25 26 26 26 26 26 27 27 25 26 26 27 29 30 30 31 32 33 33 34 32 32 32 32 32 32
17 17 17 17 17 17 18 19 19 20 20 19 19 19 20 20 22 23 24 24 24 24 24 24 24 24 24 25 26 27 28 29 30 30 31 32 33 32 31 32 32 33 33
16 17 17 17 16 17 17 18 18 19 20 20 19 19 19 20 21 22 23 23 23 23 23 24 24 24 24 24 24 25 26 28 29 29 30 31 31 32 31 31 31 31 31
16 16 16 16 16 16 17 17 17 18 19 19 19 19 19 20 20 21 22 22 22 23 23 23 23 22 23 23 24 25 26 27 28 28 28 28 28 29 30 30 30 30 31
16 15 15 16 16 16 16 17 17 17 18 19 19 20 20 19 20 21 21 21 22 23 23 23 22 22 22 22 23 24 25 25 26 26 26 26 27 27 28 28 29 30 29
17 17 17 18 17 17 17 17 18 18 18 19 20 20 20 20 20 20 20 21 21 21 22 22 22 22 22 21 22 23 23 24 24 24 24 25 26 27 27 27 27 28 29
19 18 19 18 18 18 19 19 18 18 18 19 20 20 20 20 20 21 21 21 21 22 22 22 22 22 21 20 20 20 21 21 21 22 23 24 25 25 25 25 26 27 27
20 19 20 20 20 20 20 19 19 18 18 19 20 20 21 21 21 21 22 22 23 23 22 23 23 22 22 21 21 21 21 21 21 22 23 23 23 23 24 25 25 26 26
21 21 21 21 21 21 20 20 19 19 19 19 20 20 21 21 21 22 22 22 22 23 22 22 22 22 22 22 22 23 22 22 22 22 22 22 22 23 23 24 24 24 25
23 23 23 23 22 22 22 21 20 20 20 20 20 21 21 21 22 23 22 22 22 22 23 22 23 23 23 23 23 23 22 22 22 22 22 23 23 23 23 23 23 24 25
25 24 23 23 22 22 21 21 21 21 21 21 21 21 21 21 21 21 21 21 21 20 21 21 21 21 21 22 22 21 21 21 21 21 22 21 21 22 22 23 23 24 25
24 24 23 23 22 21 21 21 21 21 21 20 20 20 20 20 21 21 21 20 19 20 19 19 19 19 19 20 20 21 21 21 21 21 21 21 21 22 22 22 22 23 24
24 23 22 22 21 21 21 20 20 20 19 18 18 18 19 20 19 19 19 19 20 20 19 19 18 18 18 18 18 19 19 20 20 20 20 21 21 21 21 22 22 23 24
22 22 21 21 20 19 19 18 18 18 17 17 17 17 17 18 17 17 17 17 17 17 18 18 17 17 17 17 17 17 17 18 18 19 19 20 20 20 21 21 22 23 23
21 20 20 19 18 17 16 16 16 15 15 15 14 14 15 16 16 16 16 15 15 15 16 16 17 17 17 16 17 16 16 17 18 19 20 19 19 20 20 21 21 21 22
19 18 17 16 15 15 14 13 12 12 12 12 12 12 12 12 13 13 13 14 14 13 14 15 15 15 16 16 15 16 17 17 18 19 19 19 19 19 20 20 20 21 20
17 16 14 13 13 12 11 10 10 9 9 9 9 10 9 9 10 10 11 11 12 13 13 13 13 13 14 14 14 14 16 16 17 18 18 18 18 18 19 19 18 18 18
14 13 11 11 10 9 8 8 7 7 7 7 7 8 8 8 8 9 10 9 10 10 11 11 11 11 11 12 12 13 13 15 15 16 16 17 17 17 16 16 16 15 15
11 10 9 8 7 6 5 5 5 5 5 5 6 6 6 7 7 7 8 8 7 8 8 9 9 10 10 10 11 11 12 12 12 13 14 14 14 13 13 13 13 13 12
9 7 6 5 4 3 3 3 3 3 4 4 5 5 6 7 6 6 6 6 6 6 6 6 6 7 7 7 7 8 9 9 10 11 11 11 11 11 10 10 10 10 11
Wind_Direction
275 277 278 277 274 271 268 265 264 265 264 263 263 261 259 259 256 252 251 251 253 257 255 252 250 250 250 250 249 248 248 248 250 250 249 248 248 249 249 252 255 258 262
280 279 279 279 275 274 271 267 267 267 267 265 263 260 260 259 256 251 250 248 250 255 255 253 252 249 249 249 249 248 247 247 249 249 247 247 247 248 250 251 254 257 260
281 280 280 278 276 275 274 272 270 269 267 265 262 260 258 258 255 252 251 249 249 254 255 254 253 251 250 248 248 249 248 246 248 247 246 247 248 249 251 253 256 259 263
283 281 281 278 276 276 275 272 273 271 267 264 262 260 258 257 254 252 251 251 249 251 253 252 250 250 250 248 247 247 246 243 246 247 246 246 248 252 253 256 258 261 264
285 284 283 281 277 275 275 273 273 272 269 266 262 261 260 256 252 249 248 248 251 254 253 252 250 249 248 245 243 243 242 241 245 246 246 246 248 252 256 257 260 263 266
286 286 284 282 278 276 274 274 273 272 271 268 265 263 260 255 249 247 247 249 251 253 253 252 252 249 245 246 245 242 241 242 243 244 245 247 248 252 255 260 262 265 267
285 286 285 281 278 275 273 272 272 270 269 267 267 264 260 255 251 247 247 245 246 251 254 252 250 248 247 246 244 242 240 240 241 242 244 248 247 249 254 258 262 264 267
288 288 287 284 279 274 273 272 272 269 265 265 265 265 261 257 253 249 249 247 247 248 248 250 250 249 249 246 245 243 240 240 241 242 243 245 246 250 255 259 262 265 269
293 291 289 287 281 276 274 273 271 267 264 263 263 263 262 257 253 249 248 248 247 248 248 250 250 248 248 248 247 242 241 241 240 242 245 248 250 253 257 259 262 265 267
295 292 289 288 285 280 277 275 273 268 263 262 262 260 259 257 254 249 246 244 246 248 247 249 249 249 248 249 249 247 246 244 242 243 248 250 253 254 256 260 263 265 267
299 293 288 288 287 283 279 276 274 270 265 260 258 256 255 254 251 247 244 244 245 245 245 247 249 249 248 249 246 244 242 241 242 245 245 248 252 254 258 261 264 266 267
301 294 290 289 287 284 279 276 274 269 265 258 255 254 253 251 248 245 242 242 242 243 244 245 247 245 243 243 242 241 242 242 243 245 246 250 253 255 259 262 265 268 270
301 296 293 291 288 285 281 276 273 268 262 258 254 252 250 249 247 243 242 241 241 244 244 244 244 242 239 239 239 240 243 244 246 249 251 253 256 259 262 265 269 271 274
300 295 292 290 287 284 281 275 271 267 262 259 255 250 249 248 246 244 242 241 241 243 244 242 239 239 238 239 240 243 245 245 248 252 254 257 259 262 265 268 271 274 276
297 293 291 288 285 281 278 274 271 268 264 259 255 251 249 246 244 243 243 241 241 242 243 241 239 239 240 243 246 246 248 249 250 253 256 258 260 262 267 271 273 276 278
297 294 291 288 285 281 277 273 270 268 265 260 255 253 251 248 245 244 244 241 240 242 243 242 242 241 242 244 246 246 247 251 252 255 259 261 263 265 269 272 275 279 280
297 295 292 289 287 282 278 274 271 269 266 262 256 253 251 248 247 247 245 244 242 242 244 244 242 241 243 244 246 249 252 255 257 259 260 262 264 267 271 274 278 280 282
298 296 293 290 287 284 279 274 272 270 266 263 257 252 250 246 244 246 247 246 242 241 241 240 241 242 243 244 248 252 254 256 257 259 260 262 266 270 273 276 279 282 283
298 296 294 290 286 283 280 277 274 270 266 262 258 252 248 245 245 245 246 246 244 241 240 242 243 244 244 247 250 252 254 255 257 260 263 266 271 274 276 279 281 283 286
297 296 294 290 286 283 280 279 274 270 264 260 257 253 247 244 243 243 243 243 241 240 240 241 242 244 244 248 251 254 257 258 260 265 268 270 273 275 277 280 283 285 288
299 297 295 291 287 284 282 279 277 271 262 257 253 247 243 242 239 239 238 237 237 240 240 241 243 245 248 251 253 257 260 263 267 268 269 271 274 277 282 284 286 287 289
302 300 297 290 286 284 283 281 275 266 258 253 249 249 244 236 233 235 234 235 235 238 242 244 246 248 251 254 255 257 261 265 267 269 270 273 276 280 283 286 287 288 289
306 303 298 292 287 284 281 279 273 260 252 246 241 242 241 230 228 230 232 235 235 237 240 242 245 248 251 254 257 259 263 268 270 270 273 277 279 282 284 287 289 290 290
314 309 304 297 291 283 276 272 267 251 242 236 232 231 230 224 222 226 229 232 235 237 240 242 245 246 251 255 256 262 266 268 271 274 277 280 282 284 287 288 290 290 291
322 317 312 306 298 288 274 273 259 243 237 231 223 217 220 218 219 223 225 226 231 237 239 242 246 249 253 257 260 264 271 276 280 281 282 283 285 288 290 291 291 293 295
333 329 323 318 312 301 292 278 248 228 218 214 211 210 211 210 214 215 213 220 228 232 237 241 244 250 255 261 270 277 283 285 286 287 287 288 289 290 292 294 297 298 299
Height
5804 5804 5803 5802 5802 5802 5802 5802 5803 5804 5804 5805 5805 5806 5807 5808 5809 5811 5813 5815 5817 5819 5821 5823 5825 5827 5829 5832 5834 5836 5839 5841 5843 5845 5847 5848 5850 5852 5853 5854 5855 5856 5857
5798 5797 5796 5795 5795 5795 5795 5795 5796 5796 5797 5797 5798 5798 5799 5801 5802 5803 5805 5807 5809 5810 5812 5814 5816 5819 5821 5824 5827 5829 5832 5834 5836 5839 5840 5842 5845 5846 5847 5849 5850 5850 5851
5791 5790 5790 5789 5789 5789 5789 5789 5789 5789 5789 5790 5790 5791 5792 5794 5795 5796 5798 5799 5801 5803 5805 5807 5809 5811 5814 5816 5819 5822 5824 5827 5830 5832 5834 5836 5838 5839 5841 5842 5843 5844 5845
5785 5784 5783 5782 5782 5782 5782 5782 5782 5782 5782 5783 5783 5784 5785 5787 5788 5790 5791 5792 5794 5796 5798 5800 5802 5804 5806 5809 5811 5814 5817 5819 5822 5825 5827 5830 5832 5833 5834 5835 5836 5837 5837
5779 5778 5777 5776 5776 5775 5775 5775 5776 5776 5776 5776 5777 5777 5778 5780 5781 5783 5784 5786 5787 5789 5792 5794 5795 5797 5799 5801 5804 5807 5810 5813 5815 5818 5820 5822 5824 5826 5827 5829 5830 5830 5830
5773 5772 5771 5770 5770 5769 5769 5770 5770 5770 5770 5770 5770 5771 5772 5773 5775 5776 5778 5780 5781 5783 5785 5787 5788 5790 5792 5795 5797 5800 5803 5806 5809 5811 5813 5815 5817 5819 5820 5821 5822 5822 5823
5768 5767 5766 5765 5764 5764 5764 5764 5764 5764 5764 5764 5765 5765 5766 5767 5769 5770 5772 5774 5776 5777 5778 5780 5782 5783 5785 5788 5791 5793 5796 5798 5801 5804 5806 5808 5810 5812 5813 5814 5814 5815 5815
5764 5763 5761 5760 5760 5759 5759 5759 5759 5758 5758 5759 5759 5760 5760 5761 5763 5764 5766 5767 5769 5771 5772 5774 5776 5777 5779 5782 5785 5786 5789 5791 5794 5796 5799 5801 5802 5804 5805 5806 5807 5807 5808
5760 5758 5757 5756 5755 5755 5754 5754 5753 5753 5753 5753 5754 5754 5755 5755 5757 5758 5760 5761 5763 5765 5767 5769 5771 5772 5774 5776 5778 5780 5782 5785 5787 5789 5791 5793 5795 5796 5798 5799 5800 5800 5800
5756 5754 5753 5752 5751 5750 5749 5749 5748 5747 5747 5747 5748 5749 5749 5750 5751 5752 5754 5756 5757 5759 5761 5763 5765 5766 5768 5770 5772 5774 5776 5778 5781 5783 5784 5786 5788 5789 5790 5791 5792 5792 5792
5753 5751 5749 5748 5747 5746 5745 5744 5743 5743 5742 5742 5743 5743 5744 5744 5745 5747 5748 5750 5752 5753 5755 5757 5759 5760 5762 5764 5766 5768 5771 5773 5775 5776 5778 5780 5781 5782 5783 5784 5784 5784 5784
5749 5747 5746 5744 5743 5741 5740 5739 5738 5738 5737 5737 5738 5738 5738 5739 5740 5741 5743 5744 5746 5748 5750 5751 5753 5755 5757 5759 5761 5763 5765 5767 5769 5771 5772 5773 5774 5775 5776 5777 5777 5777 5776
5745 5743 5741 5740 5738 5737 5735 5734 5733 5733 5732 5732 5732 5733 5733 5734 5735 5736 5738 5739 5741 5743 5745 5746 5748 5750 5752 5754 5756 5758 5760 5761 5763 5765 5766 5767 5768 5769 5769 5770 5770 5770 5769
5741 5739 5737 5735 5733 5732 5731 5729 5728 5728 5727 5727 5727 5728 5728 5729 5730 5731 5733 5734 5736 5737 5739 5741 5743 5745 5747 5749 5751 5753 5755 5756 5758 5759 5760 5761 5762 5762 5763 5763 5763 5762 5762
5736 5734 5731 5729 5728 5726 5725 5724 5723 5722 5722 5722 5722 5722 5723 5724 5725 5726 5727 5728 5730 5732 5734 5736 5738 5740 5742 5744 5746 5748 5749 5751 5752 5753 5754 5755 5756 5756 5756 5756 5756 5755 5755
5730 5728 5726 5723 5722 5720 5719 5718 5717 5716 5716 5716 5716 5717 5718 5718 5719 5721 5722 5723 5725 5726 5729 5731 5733 5734 5736 5738 5740 5742 5744 5745 5746 5748 5749 5749 5750 5750 5750 5750 5749 5749 5748
5724 5722 5719 5717 5715 5713 5712 5711 5711 5710 5710 5710 5710 5711 5712 5713 5714 5715 5717 5718 5720 5722 5723 5725 5727 5729 5731 5733 5735 5737 5738 5740 5741 5742 5743 5743 5743 5744 5744 5743 5743 5742 5741
5718 5715 5712 5710 5708 5707 5706 5705 5704 5704 5704 5704 5704 5705 5706 5707 5708 5710 5711 5713 5714 5716 5718 5720 5722 5724 5726 5728 5730 5732 5733 5734 5735 5736 5737 5738 5738 5738 5738 5737 5737 5736 5735
5711 5708 5706 5704 5702 5700 5699 5698 5698 5698 5698 5698 5698 5699 5700 5702 5703 5705 5706 5708 5710 5712 5714 5716 5718 5719 5721 5723 5725 5727 5728 5729 5730 5731 5731 5732 5732 5732 5732 5731 5731 5730 5728
5705 5702 5700 5698 5696 5695 5693 5692 5692 5692 5692 5692 5693 5694 5695 5697 5699 5700 5702 5704 5706 5707 5709 5711 5713 5715 5717 5719 5720 5722 5723 5724 5725 5726 5726 5726 5726 5726 5726 5725 5724 5723 5722
5700 5697 5694 5692 5691 5689 5688 5688 5687 5687 5687 5687 5688 5689 5691 5693 5694 5696 5698 5700 5702 5704 5706 5708 5709 5712 5713 5715 5716 5717 5719 5719 5720 5721 5721 5721 5721 5721 5720 5719 5718 5717 5716
5695 5692 5690 5688 5686 5685 5684 5684 5683 5683 5683 5684 5685 5686 5688 5689 5691 5693 5695 5697 5699 5701 5703 5705 5707 5708 5710 5711 5712 5713 5714 5715 5715 5716 5716 5716 5715 5715 5714 5714 5713 5712 5710
5690 5688 5686 5684 5683 5682 5681 5681 5680 5680 5680 5681 5682 5684 5685 5687 5688 5690 5692 5694 5696 5698 5700 5701 5703 5705 5706 5707 5708 5709 5710 5710 5711 5711 5711 5711 5710 5710 5709 5709 5708 5707 5706
5687 5684 5682 5681 5680 5679 5678 5678 5678 5678 5679 5680 5681 5682 5684 5685 5687 5689 5691 5692 5694 5696 5697 5699 5700 5702 5703 5704 5705 5705 5706 5706 5707 5707 5707 5706 5706 5705 5705 5704 5703 5702 5702
5684 5681 5680 5679 5678 5677 5677 5676 5677 5677 5678 5679 5680 5681 5683 5684 5686 5687 5689 5691 5692 5694 5695 5697 5698 5699 5700 5701 5702 5702 5703 5703 5703 5703 5703 5702 5702 5702 5701 5701 5700 5699 5698
5683 5680 5679 5677 5676 5676 5676 5675 5675 5676 5677 5678 5679 5680 5682 5684 5685 5687 5688 5690 5691 5692 5694 5695 5696 5697 5698 5699 5699 5700 5700 5700 5700 5700 5700 5699 5699 5699 5698 5698 5697 5696 5695